{"data":{"norad_id":60300,"intl_designator":"2024-132Y","name":"STARLINK-32134","alt_names":[],"object_type":"PAYLOAD","status":"ACTIVE","operator":null,"country":"US","launch_date":"2024-07-28","launch_site_code":"AFETR","launch_vehicle":null,"mission":null,"orbit_class":"UNKNOWN","rcs_meters":null,"size_class":null,"mass_kg":null,"dimensions":null,"purposes":["comms"],"wikipedia_slug":null,"has_3d_model":false,"image_url":null,"decayed_at":null,"tle_current":{"epoch":"2026-09-21T21:46:14.995200Z","epoch_age_seconds":64084,"freshness":"FRESH","line1":"1 60300U 24132Y   26264.90711800 -.00000661  00000+0 -84291-5 0  9990","line2":"2 60300  53.1599 218.7868 0001341  88.9905 271.1251 15.34386514121633","mean_motion":15.34386514,"eccentricity":0.0001341,"inclination_deg":53.1599,"raan_deg":218.7868,"arg_perigee_deg":88.9905,"mean_anomaly_deg":271.1251,"bstar":-8.4291e-6,"rev_number":12163,"period_min":93.848582926218,"perigee_km":461.82596168332,"apogee_km":463.66068578614,"semimajor_km":6840.8803237347,"source":"CELESTRAK","updated_at":"2026-09-22T09:00:49.196044Z"}}}